Year,Month,Day,Hour,Minute,Value (Times are PST for temperature in C)
2023,05,02,00,00,9.90
2023,05,02,00,01,9.90
2023,05,02,00,02,9.90
2023,05,02,00,03,9.90
2023,05,02,00,04,9.90
2023,05,02,00,05,9.90
2023,05,02,00,06,9.90
2023,05,02,00,07,9.90
2023,05,02,00,08,9.90
2023,05,02,00,09,9.80
2023,05,02,00,10,9.80
2023,05,02,00,11,9.80
2023,05,02,00,12,9.80
2023,05,02,00,13,9.70
2023,05,02,00,14,9.70
2023,05,02,00,15,9.70
2023,05,02,00,16,9.70
2023,05,02,00,17,9.70
2023,05,02,00,18,9.70
2023,05,02,00,19,9.70
2023,05,02,00,20,9.70
2023,05,02,00,21,9.70
2023,05,02,00,22,9.70
2023,05,02,00,23,9.70
2023,05,02,00,24,9.70
2023,05,02,00,25,9.70
2023,05,02,00,26,9.70
2023,05,02,00,27,9.60
2023,05,02,00,28,9.60
2023,05,02,00,29,9.60
2023,05,02,00,30,9.60
2023,05,02,00,31,9.50
2023,05,02,00,32,9.50
2023,05,02,00,33,9.50
2023,05,02,00,34,9.50
2023,05,02,00,35,9.40
2023,05,02,00,36,9.40
2023,05,02,00,37,9.40
2023,05,02,00,38,9.40
2023,05,02,00,39,9.40
2023,05,02,00,40,9.30
2023,05,02,00,41,9.30
2023,05,02,00,42,9.30
2023,05,02,00,43,9.30
2023,05,02,00,44,9.30
2023,05,02,00,45,9.30
2023,05,02,00,46,9.30
2023,05,02,00,47,9.30
2023,05,02,00,48,9.30
2023,05,02,00,49,9.30
2023,05,02,00,50,9.30
2023,05,02,00,51,9.30
2023,05,02,00,52,9.30
2023,05,02,00,53,9.20
2023,05,02,00,54,9.30
2023,05,02,00,55,9.20
2023,05,02,00,56,9.20
2023,05,02,00,57,9.20
2023,05,02,00,58,9.20
2023,05,02,00,59,9.20
2023,05,02,01,00,9.20
2023,05,02,01,01,9.20
2023,05,02,01,02,9.20
2023,05,02,01,03,9.20
2023,05,02,01,04,9.20
2023,05,02,01,05,9.20
2023,05,02,01,06,9.30
2023,05,02,01,07,9.30
2023,05,02,01,08,9.30
2023,05,02,01,09,9.30
2023,05,02,01,10,9.30
2023,05,02,01,11,9.30
2023,05,02,01,12,9.30
2023,05,02,01,13,9.30
2023,05,02,01,14,9.30
2023,05,02,01,15,9.20
2023,05,02,01,16,9.20
2023,05,02,01,17,9.20
2023,05,02,01,18,9.20
2023,05,02,01,19,9.20
2023,05,02,01,20,9.20
2023,05,02,01,21,9.20
2023,05,02,01,22,9.20
2023,05,02,01,23,9.20
2023,05,02,01,24,9.20
2023,05,02,01,25,9.20
2023,05,02,01,26,9.20
2023,05,02,01,27,9.20
2023,05,02,01,28,9.20
2023,05,02,01,29,9.20
2023,05,02,01,30,9.20
2023,05,02,01,31,9.20
2023,05,02,01,32,9.20
2023,05,02,01,33,9.20
2023,05,02,01,34,9.20
2023,05,02,01,35,9.20
2023,05,02,01,36,9.20
2023,05,02,01,37,9.20
2023,05,02,01,38,9.20
2023,05,02,01,39,9.20
2023,05,02,01,40,9.20
2023,05,02,01,41,9.20
2023,05,02,01,42,9.20
2023,05,02,01,43,9.20
2023,05,02,01,44,9.20
2023,05,02,01,45,9.20
2023,05,02,01,46,9.20
2023,05,02,01,47,9.20
2023,05,02,01,48,9.20
2023,05,02,01,49,9.10
2023,05,02,01,50,9.10
2023,05,02,01,51,9.00
2023,05,02,01,52,9.00
2023,05,02,01,53,8.90
2023,05,02,01,54,8.90
2023,05,02,01,55,8.90
2023,05,02,01,56,8.90
2023,05,02,01,57,8.90
2023,05,02,01,58,8.90
2023,05,02,01,59,8.80
2023,05,02,02,00,8.80
2023,05,02,02,01,8.80
2023,05,02,02,02,8.80
2023,05,02,02,03,8.80
2023,05,02,02,04,8.80
2023,05,02,02,05,8.70
2023,05,02,02,06,8.70
2023,05,02,02,07,8.70
2023,05,02,02,08,8.70
2023,05,02,02,09,8.70
2023,05,02,02,10,8.70
2023,05,02,02,11,8.70
2023,05,02,02,12,8.70
2023,05,02,02,13,8.70
2023,05,02,02,14,8.70
2023,05,02,02,15,8.70
2023,05,02,02,16,8.70
2023,05,02,02,17,8.70
2023,05,02,02,18,8.70
2023,05,02,02,19,8.70
2023,05,02,02,20,8.70
2023,05,02,02,21,8.70
2023,05,02,02,22,8.70
2023,05,02,02,23,8.70
2023,05,02,02,24,8.70
2023,05,02,02,25,8.70
2023,05,02,02,26,8.70
2023,05,02,02,27,8.60
2023,05,02,02,28,8.60
2023,05,02,02,29,8.60
2023,05,02,02,30,8.60
2023,05,02,02,31,8.60
2023,05,02,02,32,8.60
2023,05,02,02,33,8.50
2023,05,02,02,34,8.50
2023,05,02,02,35,8.50
2023,05,02,02,36,8.50
2023,05,02,02,37,8.50
2023,05,02,02,38,8.50
2023,05,02,02,39,8.50
2023,05,02,02,40,8.50
2023,05,02,02,41,8.50
2023,05,02,02,42,8.50
2023,05,02,02,43,8.50
2023,05,02,02,44,8.50
2023,05,02,02,45,8.50
2023,05,02,02,46,8.50
2023,05,02,02,47,8.50
2023,05,02,02,48,8.50
2023,05,02,02,49,8.50
2023,05,02,02,50,8.50
2023,05,02,02,51,8.50
2023,05,02,02,52,8.50
2023,05,02,02,53,8.50
2023,05,02,02,54,8.50
2023,05,02,02,55,8.50
2023,05,02,02,56,8.40
2023,05,02,02,57,8.40
2023,05,02,02,58,8.40
2023,05,02,02,59,8.40
2023,05,02,03,00,8.40
2023,05,02,03,01,8.40
2023,05,02,03,02,8.40
2023,05,02,03,03,8.30
2023,05,02,03,04,8.30
2023,05,02,03,05,8.30
2023,05,02,03,06,8.30
2023,05,02,03,07,8.30
2023,05,02,03,08,8.40
2023,05,02,03,09,8.40
2023,05,02,03,10,8.40
2023,05,02,03,11,8.40
2023,05,02,03,12,8.40
2023,05,02,03,13,8.40
2023,05,02,03,14,8.40
2023,05,02,03,15,8.40
2023,05,02,03,16,8.40
2023,05,02,03,17,8.30
2023,05,02,03,18,8.30
2023,05,02,03,19,8.30
2023,05,02,03,20,8.30
2023,05,02,03,21,8.30
2023,05,02,03,22,8.30
2023,05,02,03,23,8.30
2023,05,02,03,24,8.30
2023,05,02,03,25,8.30
2023,05,02,03,26,8.40
2023,05,02,03,27,8.40
2023,05,02,03,28,8.40
2023,05,02,03,29,8.40
2023,05,02,03,30,8.50
2023,05,02,03,31,8.50
2023,05,02,03,32,8.50
2023,05,02,03,33,8.50
2023,05,02,03,34,8.50
2023,05,02,03,35,8.50
2023,05,02,03,36,8.50
2023,05,02,03,37,8.50
2023,05,02,03,38,8.50
2023,05,02,03,39,8.50
2023,05,02,03,40,8.60
2023,05,02,03,41,8.60
2023,05,02,03,42,8.60
2023,05,02,03,43,8.60
2023,05,02,03,44,8.60
2023,05,02,03,45,8.60
2023,05,02,03,46,8.70
2023,05,02,03,47,8.70
2023,05,02,03,48,8.70
2023,05,02,03,49,8.70
2023,05,02,03,50,8.80
2023,05,02,03,51,8.80
2023,05,02,03,52,8.80
2023,05,02,03,53,8.80
2023,05,02,03,54,8.80
2023,05,02,03,55,8.80
2023,05,02,03,56,8.80
2023,05,02,03,57,8.80
2023,05,02,03,58,8.80
2023,05,02,03,59,8.80
2023,05,02,04,00,8.70
2023,05,02,04,01,8.70
2023,05,02,04,02,8.70
2023,05,02,04,03,8.70
2023,05,02,04,04,8.70
2023,05,02,04,05,8.70
2023,05,02,04,06,8.70
2023,05,02,04,07,8.70
2023,05,02,04,08,8.70
2023,05,02,04,09,8.60
2023,05,02,04,10,8.60
2023,05,02,04,11,8.60
2023,05,02,04,12,8.60
2023,05,02,04,13,8.60
2023,05,02,04,14,8.60
2023,05,02,04,15,8.60
2023,05,02,04,16,8.50
2023,05,02,04,17,8.50
2023,05,02,04,18,8.50
2023,05,02,04,19,8.50
2023,05,02,04,20,8.50
2023,05,02,04,21,8.50
2023,05,02,04,22,8.50
2023,05,02,04,23,8.50
2023,05,02,04,24,8.50
2023,05,02,04,25,8.50
2023,05,02,04,26,8.50
2023,05,02,04,27,8.50
2023,05,02,04,28,8.50
2023,05,02,04,29,8.50
2023,05,02,04,30,8.50
2023,05,02,04,31,8.50
2023,05,02,04,32,8.50
2023,05,02,04,33,8.50
2023,05,02,04,34,8.50
2023,05,02,04,35,8.50
2023,05,02,04,36,8.50
2023,05,02,04,37,8.50
2023,05,02,04,38,8.60
2023,05,02,04,39,8.60
2023,05,02,04,40,8.60
2023,05,02,04,41,8.60
2023,05,02,04,42,8.60
2023,05,02,04,43,8.60
2023,05,02,04,44,8.60
2023,05,02,04,45,8.60
2023,05,02,04,46,8.60
2023,05,02,04,47,8.50
2023,05,02,04,48,8.50
2023,05,02,04,49,8.50
2023,05,02,04,50,8.40
2023,05,02,04,51,8.40
2023,05,02,04,52,8.40
2023,05,02,04,53,8.40
2023,05,02,04,54,8.30
2023,05,02,04,55,8.30
2023,05,02,04,56,8.30
2023,05,02,04,57,8.30
2023,05,02,04,58,8.30
2023,05,02,04,59,8.30
2023,05,02,05,00,8.30
2023,05,02,05,01,8.40
2023,05,02,05,02,8.40
2023,05,02,05,03,8.40
2023,05,02,05,04,8.40
2023,05,02,05,05,8.50
2023,05,02,05,06,8.60
2023,05,02,05,07,8.70
2023,05,02,05,08,8.70
2023,05,02,05,09,8.80
2023,05,02,05,10,8.90
2023,05,02,05,11,9.00
2023,05,02,05,12,9.00
2023,05,02,05,13,9.10
2023,05,02,05,14,9.20
2023,05,02,05,15,9.20
2023,05,02,05,16,9.20
2023,05,02,05,17,9.20
2023,05,02,05,18,9.20
2023,05,02,05,19,9.20
2023,05,02,05,20,9.20
2023,05,02,05,21,9.20
2023,05,02,05,22,9.20
2023,05,02,05,23,9.20
2023,05,02,05,24,9.20
2023,05,02,05,25,9.20
2023,05,02,05,26,9.20
2023,05,02,05,27,9.20
2023,05,02,05,28,9.20
2023,05,02,05,29,9.20
2023,05,02,05,30,9.20
2023,05,02,05,31,9.20
2023,05,02,05,32,9.30
2023,05,02,05,33,9.30
2023,05,02,05,34,9.30
2023,05,02,05,35,9.30
2023,05,02,05,36,9.30
2023,05,02,05,37,9.30
2023,05,02,05,38,9.20
2023,05,02,05,39,9.20
2023,05,02,05,40,9.20
2023,05,02,05,41,9.20
2023,05,02,05,42,9.20
2023,05,02,05,43,9.20
2023,05,02,05,44,9.20
2023,05,02,05,45,9.20
2023,05,02,05,46,9.20
2023,05,02,05,47,9.20
2023,05,02,05,48,9.10
2023,05,02,05,49,9.10
2023,05,02,05,50,9.10
2023,05,02,05,51,9.10
2023,05,02,05,52,9.10
2023,05,02,05,53,9.10
2023,05,02,05,54,9.10
2023,05,02,05,55,9.10
2023,05,02,05,56,9.00
2023,05,02,05,57,9.00
2023,05,02,05,58,9.00
2023,05,02,05,59,9.00
2023,05,02,06,00,9.00
2023,05,02,06,01,9.00
2023,05,02,06,02,9.00
2023,05,02,06,03,9.00
2023,05,02,06,04,9.00
2023,05,02,06,05,9.00
2023,05,02,06,06,9.00
2023,05,02,06,07,9.00
2023,05,02,06,08,8.90
2023,05,02,06,09,8.90
2023,05,02,06,10,8.90
2023,05,02,06,11,8.90
2023,05,02,06,12,8.80
2023,05,02,06,13,8.70
2023,05,02,06,14,8.70
2023,05,02,06,15,8.70
2023,05,02,06,16,8.70
2023,05,02,06,17,8.70
2023,05,02,06,18,8.70
2023,05,02,06,19,8.70
2023,05,02,06,20,8.70
2023,05,02,06,21,8.70
2023,05,02,06,22,8.70
2023,05,02,06,23,8.70
2023,05,02,06,24,8.70
2023,05,02,06,25,8.70
2023,05,02,06,26,8.70
2023,05,02,06,27,8.70
2023,05,02,06,28,8.70
2023,05,02,06,29,8.70
2023,05,02,06,30,8.70
2023,05,02,06,31,8.70
2023,05,02,06,32,8.70
2023,05,02,06,33,8.70
2023,05,02,06,34,8.70
2023,05,02,06,35,8.70
2023,05,02,06,36,8.70
2023,05,02,06,37,8.70
2023,05,02,06,38,8.70
2023,05,02,06,39,8.70
2023,05,02,06,40,8.70
2023,05,02,06,41,8.70
2023,05,02,06,42,8.70
2023,05,02,06,43,8.70
2023,05,02,06,44,8.70
2023,05,02,06,45,8.70
2023,05,02,06,46,8.70
2023,05,02,06,47,8.70
2023,05,02,06,48,8.70
2023,05,02,06,49,8.70
2023,05,02,06,50,8.70
2023,05,02,06,51,8.70
2023,05,02,06,52,8.70
2023,05,02,06,53,8.70
2023,05,02,06,54,8.80
2023,05,02,06,55,8.80
2023,05,02,06,56,8.80
2023,05,02,06,57,8.90
2023,05,02,06,58,8.90
2023,05,02,06,59,8.90
2023,05,02,07,00,8.90
2023,05,02,07,01,9.00
2023,05,02,07,02,9.00
2023,05,02,07,03,9.00
2023,05,02,07,04,9.00
2023,05,02,07,05,9.10
2023,05,02,07,06,9.10
2023,05,02,07,07,9.10
2023,05,02,07,08,9.20
2023,05,02,07,09,9.20
2023,05,02,07,10,9.20
2023,05,02,07,11,9.20
2023,05,02,07,12,9.30
2023,05,02,07,13,9.30
2023,05,02,07,14,9.40
2023,05,02,07,15,9.40
2023,05,02,07,16,9.50
2023,05,02,07,17,9.50
2023,05,02,07,18,9.50
2023,05,02,07,19,9.50
2023,05,02,07,20,9.60
2023,05,02,07,21,9.60
2023,05,02,07,22,9.70
2023,05,02,07,23,9.70
2023,05,02,07,24,9.70
2023,05,02,07,25,9.80
2023,05,02,07,26,9.90
2023,05,02,07,27,9.90
2023,05,02,07,28,9.90
2023,05,02,07,29,10.00
2023,05,02,07,30,10.10
2023,05,02,07,31,10.10
2023,05,02,07,32,10.10
2023,05,02,07,33,10.10
2023,05,02,07,34,10.10
2023,05,02,07,35,10.10
2023,05,02,07,36,10.20
2023,05,02,07,37,10.20
2023,05,02,07,38,10.20
2023,05,02,07,39,10.30
2023,05,02,07,40,10.40
2023,05,02,07,41,10.40
2023,05,02,07,42,10.40
2023,05,02,07,43,10.60
2023,05,02,07,44,10.60
2023,05,02,07,45,10.60
2023,05,02,07,46,10.70
2023,05,02,07,47,10.80
2023,05,02,07,48,10.90
2023,05,02,07,49,11.00
2023,05,02,07,50,11.10
2023,05,02,07,51,11.20
2023,05,02,07,52,11.30
2023,05,02,07,53,11.30
2023,05,02,07,54,11.30
2023,05,02,07,55,11.20
2023,05,02,07,56,11.20
2023,05,02,07,57,11.20
2023,05,02,07,58,11.20
2023,05,02,07,59,11.20
2023,05,02,08,00,11.20
2023,05,02,08,01,11.20
2023,05,02,08,02,11.30
2023,05,02,08,03,11.30
2023,05,02,08,04,11.30
2023,05,02,08,05,11.40
2023,05,02,08,06,11.40
2023,05,02,08,07,11.60
2023,05,02,08,08,11.60
2023,05,02,08,09,11.80
2023,05,02,08,10,11.80
2023,05,02,08,11,11.80
2023,05,02,08,12,11.80
2023,05,02,08,13,11.80
2023,05,02,08,14,11.80
2023,05,02,08,15,11.80
2023,05,02,08,16,11.80
2023,05,02,08,17,11.80
2023,05,02,08,18,11.80
2023,05,02,08,19,11.80
2023,05,02,08,20,11.80
2023,05,02,08,21,11.80
2023,05,02,08,22,11.80
2023,05,02,08,23,11.90
2023,05,02,08,24,12.00
2023,05,02,08,25,12.10
2023,05,02,08,26,12.20
2023,05,02,08,27,12.30
2023,05,02,08,28,12.50
2023,05,02,08,29,12.50
2023,05,02,08,30,12.60
2023,05,02,08,31,12.70
2023,05,02,08,32,12.80
2023,05,02,08,33,12.80
2023,05,02,08,34,12.80
2023,05,02,08,35,12.80
2023,05,02,08,36,12.80
2023,05,02,08,37,12.90
2023,05,02,08,38,13.00
2023,05,02,08,39,13.00
2023,05,02,08,40,13.10
2023,05,02,08,41,13.20
2023,05,02,08,42,13.20
2023,05,02,08,43,13.20
2023,05,02,08,44,13.30
2023,05,02,08,45,13.40
2023,05,02,08,46,13.50
2023,05,02,08,47,13.60
2023,05,02,08,48,13.70
2023,05,02,08,49,13.60
2023,05,02,08,50,13.60
2023,05,02,08,51,13.50
2023,05,02,08,52,13.40
2023,05,02,08,53,13.50
2023,05,02,08,54,13.60
2023,05,02,08,55,13.70
2023,05,02,08,56,13.70
2023,05,02,08,57,13.80
2023,05,02,08,58,13.90
2023,05,02,08,59,14.00
2023,05,02,09,00,14.10
2023,05,02,09,01,14.20
2023,05,02,09,02,14.30
2023,05,02,09,03,14.30
2023,05,02,09,04,14.20
2023,05,02,09,05,14.20
2023,05,02,09,06,14.10
2023,05,02,09,07,14.00
2023,05,02,09,08,14.00
2023,05,02,09,09,13.90
2023,05,02,09,10,14.00
2023,05,02,09,11,14.00
2023,05,02,09,12,14.10
2023,05,02,09,13,14.10
2023,05,02,09,14,14.20
2023,05,02,09,15,14.20
2023,05,02,09,16,14.20
2023,05,02,09,17,14.20
2023,05,02,09,18,14.20
2023,05,02,09,19,14.20
2023,05,02,09,20,14.20
2023,05,02,09,21,14.20
2023,05,02,09,22,14.30
2023,05,02,09,23,14.30
2023,05,02,09,24,14.50
2023,05,02,09,25,14.50
2023,05,02,09,26,14.60
2023,05,02,09,27,14.80
2023,05,02,09,28,14.90
2023,05,02,09,29,14.90
2023,05,02,09,30,15.00
2023,05,02,09,31,15.00
2023,05,02,09,32,15.00
2023,05,02,09,33,15.10
2023,05,02,09,34,15.10
2023,05,02,09,35,15.20
2023,05,02,09,36,15.20
2023,05,02,09,37,15.30
2023,05,02,09,38,15.40
2023,05,02,09,39,15.50
2023,05,02,09,40,15.40
2023,05,02,09,41,15.40
2023,05,02,09,42,15.40
2023,05,02,09,43,15.40
2023,05,02,09,44,15.40
2023,05,02,09,45,15.30
2023,05,02,09,46,15.30
2023,05,02,09,47,15.40
2023,05,02,09,48,15.40
2023,05,02,09,49,15.30
2023,05,02,09,50,15.30
2023,05,02,09,51,15.20
2023,05,02,09,52,15.20
2023,05,02,09,53,15.20
2023,05,02,09,54,15.30
2023,05,02,09,55,15.30
2023,05,02,09,56,15.30
2023,05,02,09,57,15.30
2023,05,02,09,58,15.30
2023,05,02,09,59,15.30
2023,05,02,10,00,15.30
2023,05,02,10,01,15.30
2023,05,02,10,02,15.30
2023,05,02,10,03,15.30
2023,05,02,10,04,15.40
2023,05,02,10,05,15.50
2023,05,02,10,06,15.50
2023,05,02,10,07,15.60
2023,05,02,10,08,15.60
2023,05,02,10,09,15.70
2023,05,02,10,10,15.80
2023,05,02,10,11,15.90
2023,05,02,10,12,15.90
2023,05,02,10,13,16.00
2023,05,02,10,14,16.10
2023,05,02,10,15,16.10
2023,05,02,10,16,16.10
2023,05,02,10,17,16.10
2023,05,02,10,18,16.20
2023,05,02,10,19,16.20
2023,05,02,10,20,16.20
2023,05,02,10,21,16.20
2023,05,02,10,22,16.20
2023,05,02,10,23,16.30
2023,05,02,10,24,16.30
2023,05,02,10,25,16.40
2023,05,02,10,26,16.40
2023,05,02,10,27,16.40
2023,05,02,10,28,16.40
2023,05,02,10,29,16.40
2023,05,02,10,30,16.40
2023,05,02,10,31,16.40
2023,05,02,10,32,16.50
2023,05,02,10,33,16.40
2023,05,02,10,34,16.40
2023,05,02,10,35,16.40
2023,05,02,10,36,16.40
2023,05,02,10,37,16.40
2023,05,02,10,38,16.40
2023,05,02,10,39,16.40
2023,05,02,10,40,16.40
2023,05,02,10,41,16.50
2023,05,02,10,42,16.70
2023,05,02,10,43,16.70
2023,05,02,10,44,16.60
2023,05,02,10,45,16.50
2023,05,02,10,46,16.50
2023,05,02,10,47,16.70
2023,05,02,10,48,16.70
2023,05,02,10,49,16.80
2023,05,02,10,50,16.90
2023,05,02,10,51,17.00
2023,05,02,10,52,17.00
2023,05,02,10,53,17.10
2023,05,02,10,54,17.10
2023,05,02,10,55,17.10
2023,05,02,10,56,17.00
2023,05,02,10,57,17.00
2023,05,02,10,58,17.00
2023,05,02,10,59,17.00
2023,05,02,11,00,16.90
2023,05,02,11,01,17.00
2023,05,02,11,02,17.00
2023,05,02,11,03,17.00
2023,05,02,11,04,17.00
2023,05,02,11,05,17.10
2023,05,02,11,06,17.20
2023,05,02,11,07,17.30
2023,05,02,11,08,17.40
2023,05,02,11,09,17.50
2023,05,02,11,10,17.50
2023,05,02,11,11,17.60
2023,05,02,11,12,17.70
2023,05,02,11,13,17.80
2023,05,02,11,14,17.90
2023,05,02,11,15,17.90
2023,05,02,11,16,17.80
2023,05,02,11,17,17.70
2023,05,02,11,18,17.60
2023,05,02,11,19,17.50
2023,05,02,11,20,17.40
2023,05,02,11,21,17.30
2023,05,02,11,22,17.30
2023,05,02,11,23,17.30
2023,05,02,11,24,17.30
2023,05,02,11,25,17.30
2023,05,02,11,26,17.30
2023,05,02,11,27,17.30
2023,05,02,11,28,17.30
2023,05,02,11,29,17.40
2023,05,02,11,30,17.30
2023,05,02,11,31,17.20
2023,05,02,11,32,17.10
2023,05,02,11,33,17.10
2023,05,02,11,34,17.20
2023,05,02,11,35,17.30
2023,05,02,11,36,17.30
2023,05,02,11,37,17.30
2023,05,02,11,38,17.30
2023,05,02,11,39,17.30
2023,05,02,11,40,17.30
2023,05,02,11,41,17.40
2023,05,02,11,42,17.50
2023,05,02,11,43,17.70
2023,05,02,11,44,17.80
2023,05,02,11,45,17.80
2023,05,02,11,46,17.90
2023,05,02,11,47,17.90
2023,05,02,11,48,18.10
2023,05,02,11,49,18.10
2023,05,02,11,50,18.10
2023,05,02,11,51,17.90
2023,05,02,11,52,17.80
2023,05,02,11,53,17.70
2023,05,02,11,54,17.60
2023,05,02,11,55,17.40
2023,05,02,11,56,17.40
2023,05,02,11,57,17.50
2023,05,02,11,58,17.50
2023,05,02,11,59,17.40
2023,05,02,12,00,17.30
2023,05,02,12,01,17.30
2023,05,02,12,02,17.30
2023,05,02,12,03,17.30
2023,05,02,12,04,17.30
2023,05,02,12,05,17.30
2023,05,02,12,06,17.40
2023,05,02,12,07,17.50
2023,05,02,12,08,17.60
2023,05,02,12,09,17.80
2023,05,02,12,10,17.90
2023,05,02,12,11,18.10
2023,05,02,12,12,18.20
2023,05,02,12,13,18.20
2023,05,02,12,14,18.20
2023,05,02,12,15,18.20
2023,05,02,12,16,18.30
2023,05,02,12,17,18.30
2023,05,02,12,18,18.50
2023,05,02,12,19,18.60
2023,05,02,12,20,18.70
2023,05,02,12,21,18.80
2023,05,02,12,22,18.80
2023,05,02,12,23,18.70
2023,05,02,12,24,18.70
2023,05,02,12,25,18.80
2023,05,02,12,26,18.90
2023,05,02,12,27,19.10
2023,05,02,12,28,19.30
2023,05,02,12,29,19.20
2023,05,02,12,30,19.20
2023,05,02,12,31,19.20
2023,05,02,12,32,19.20
2023,05,02,12,33,19.10
2023,05,02,12,34,19.00
2023,05,02,12,35,18.90
2023,05,02,12,36,18.90
2023,05,02,12,37,18.90
2023,05,02,12,38,18.90
2023,05,02,12,39,18.90
2023,05,02,12,40,18.90
2023,05,02,12,41,18.90
2023,05,02,12,42,18.90
2023,05,02,12,43,18.90
2023,05,02,12,44,19.10
2023,05,02,12,45,19.20
2023,05,02,12,46,19.30
2023,05,02,12,47,19.20
2023,05,02,12,48,19.20
2023,05,02,12,49,19.10
2023,05,02,12,50,19.00
2023,05,02,12,51,18.90
2023,05,02,12,52,18.90
2023,05,02,12,53,18.90
2023,05,02,12,54,18.80
2023,05,02,12,55,18.80
2023,05,02,12,56,18.80
2023,05,02,12,57,18.80
2023,05,02,12,58,18.90
2023,05,02,12,59,19.00
2023,05,02,13,00,19.10
2023,05,02,13,01,19.10
2023,05,02,13,02,19.10
2023,05,02,13,03,19.10
2023,05,02,13,04,19.20
2023,05,02,13,05,19.20
2023,05,02,13,06,19.20
2023,05,02,13,07,19.10
2023,05,02,13,08,19.10
2023,05,02,13,09,19.00
2023,05,02,13,10,19.10
2023,05,02,13,11,19.10
2023,05,02,13,12,19.10
2023,05,02,13,13,19.10
2023,05,02,13,14,19.00
2023,05,02,13,15,18.90
2023,05,02,13,16,18.80
2023,05,02,13,17,18.70
2023,05,02,13,18,18.70
2023,05,02,13,19,18.60
2023,05,02,13,20,18.70
2023,05,02,13,21,18.80
2023,05,02,13,22,18.90
2023,05,02,13,23,19.00
2023,05,02,13,24,19.10
2023,05,02,13,25,19.10
2023,05,02,13,26,19.30
2023,05,02,13,27,19.50
2023,05,02,13,28,19.70
2023,05,02,13,29,19.80
2023,05,02,13,30,19.90
2023,05,02,13,31,20.20
2023,05,02,13,32,20.50
2023,05,02,13,33,20.50
2023,05,02,13,34,20.50
2023,05,02,13,35,20.60
2023,05,02,13,36,20.70
2023,05,02,13,37,20.80
2023,05,02,13,38,20.80
2023,05,02,13,39,20.70
2023,05,02,13,40,20.60
2023,05,02,13,41,20.50
2023,05,02,13,42,20.30
2023,05,02,13,43,20.20
2023,05,02,13,44,20.30
2023,05,02,13,45,20.30
2023,05,02,13,46,20.40
2023,05,02,13,47,20.40
2023,05,02,13,48,20.40
2023,05,02,13,49,20.40
2023,05,02,13,50,20.40
2023,05,02,13,51,20.50
2023,05,02,13,52,20.60
2023,05,02,13,53,20.70
2023,05,02,13,54,20.80
2023,05,02,13,55,20.90
2023,05,02,13,56,20.90
2023,05,02,13,57,20.90
2023,05,02,13,58,20.80
2023,05,02,13,59,20.90
2023,05,02,14,00,20.90
2023,05,02,14,01,20.90
2023,05,02,14,02,20.90
2023,05,02,14,03,20.90
2023,05,02,14,04,20.80
2023,05,02,14,05,20.80
2023,05,02,14,06,20.80
2023,05,02,14,07,20.80
2023,05,02,14,08,20.90
2023,05,02,14,09,20.90
2023,05,02,14,10,20.90
2023,05,02,14,11,20.90
2023,05,02,14,12,20.90
2023,05,02,14,13,20.90
2023,05,02,14,14,20.80
2023,05,02,14,15,20.80
2023,05,02,14,16,20.80
2023,05,02,14,17,20.90
2023,05,02,14,18,20.90
2023,05,02,14,19,21.10
2023,05,02,14,20,21.20
2023,05,02,14,21,21.30
2023,05,02,14,22,21.30
2023,05,02,14,23,21.30
2023,05,02,14,24,21.20
2023,05,02,14,25,21.10
2023,05,02,14,26,21.10
2023,05,02,14,27,21.00
2023,05,02,14,28,20.90
2023,05,02,14,29,20.80
2023,05,02,14,30,20.70
2023,05,02,14,31,20.70
2023,05,02,14,32,20.80
2023,05,02,14,33,21.00
2023,05,02,14,34,21.10
2023,05,02,14,35,21.20
2023,05,02,14,36,21.30
2023,05,02,14,37,21.30
2023,05,02,14,38,21.30
2023,05,02,14,39,21.20
2023,05,02,14,40,21.10
2023,05,02,14,41,21.00
2023,05,02,14,42,21.00
2023,05,02,14,43,21.10
2023,05,02,14,44,21.10
2023,05,02,14,45,21.20
2023,05,02,14,46,21.30
2023,05,02,14,47,21.30
2023,05,02,14,48,21.30
2023,05,02,14,49,21.30
2023,05,02,14,50,21.30
2023,05,02,14,51,21.40
2023,05,02,14,52,21.50
2023,05,02,14,53,21.60
2023,05,02,14,54,21.60
2023,05,02,14,55,21.80
2023,05,02,14,56,21.80
2023,05,02,14,57,21.80
2023,05,02,14,58,21.70
2023,05,02,14,59,21.60
2023,05,02,15,00,21.60
2023,05,02,15,01,21.60
2023,05,02,15,02,21.40
2023,05,02,15,03,21.30
2023,05,02,15,04,21.30
2023,05,02,15,05,21.20
2023,05,02,15,06,21.20
2023,05,02,15,07,21.30
2023,05,02,15,08,21.30
2023,05,02,15,09,21.10
2023,05,02,15,10,21.10
2023,05,02,15,11,21.10
2023,05,02,15,12,21.20
2023,05,02,15,13,21.30
2023,05,02,15,14,21.30
2023,05,02,15,15,21.30
2023,05,02,15,16,21.30
2023,05,02,15,17,21.30
2023,05,02,15,18,21.30
2023,05,02,15,19,21.30
2023,05,02,15,20,21.30
2023,05,02,15,21,21.30
2023,05,02,15,22,21.30
2023,05,02,15,23,21.30
2023,05,02,15,24,21.30
2023,05,02,15,25,21.30
2023,05,02,15,26,21.30
2023,05,02,15,27,21.30
2023,05,02,15,28,21.30
2023,05,02,15,29,21.20
2023,05,02,15,30,21.20
2023,05,02,15,31,21.20
2023,05,02,15,32,21.10
2023,05,02,15,33,21.10
2023,05,02,15,34,21.00
2023,05,02,15,35,20.80
2023,05,02,15,36,20.80
2023,05,02,15,37,20.80
2023,05,02,15,38,20.70
2023,05,02,15,39,20.70
2023,05,02,15,40,20.70
2023,05,02,15,41,20.80
2023,05,02,15,42,20.80
2023,05,02,15,43,21.00
2023,05,02,15,44,21.10
2023,05,02,15,45,21.10
2023,05,02,15,46,21.20
2023,05,02,15,47,21.30
2023,05,02,15,48,21.30
2023,05,02,15,49,21.30
2023,05,02,15,50,21.50
2023,05,02,15,51,21.60
2023,05,02,15,52,21.60
2023,05,02,15,53,21.60
2023,05,02,15,54,21.60
2023,05,02,15,55,21.40
2023,05,02,15,56,21.40
2023,05,02,15,57,21.40
2023,05,02,15,58,21.30
2023,05,02,15,59,21.30
2023,05,02,16,00,21.30
2023,05,02,16,01,21.30
2023,05,02,16,02,21.30
2023,05,02,16,03,21.30
2023,05,02,16,04,21.20
2023,05,02,16,05,21.30
2023,05,02,16,06,21.20
2023,05,02,16,07,21.30
2023,05,02,16,08,21.30
2023,05,02,16,09,21.30
2023,05,02,16,10,21.30
2023,05,02,16,11,21.30
2023,05,02,16,12,21.40
2023,05,02,16,13,21.40
2023,05,02,16,14,21.40
2023,05,02,16,15,21.40
2023,05,02,16,16,21.30
2023,05,02,16,17,21.40
2023,05,02,16,18,21.40
2023,05,02,16,19,21.40
2023,05,02,16,20,21.40
2023,05,02,16,21,21.40
2023,05,02,16,22,21.40
2023,05,02,16,23,21.40
2023,05,02,16,24,21.50
2023,05,02,16,25,21.60
2023,05,02,16,26,21.60
2023,05,02,16,27,21.70
2023,05,02,16,28,21.80
2023,05,02,16,29,21.80
2023,05,02,16,30,21.80
2023,05,02,16,31,21.80
2023,05,02,16,32,21.70
2023,05,02,16,33,21.60
2023,05,02,16,34,21.50
2023,05,02,16,35,21.30
2023,05,02,16,36,21.30
2023,05,02,16,37,21.30
2023,05,02,16,38,21.30
2023,05,02,16,39,21.30
2023,05,02,16,40,21.30
2023,05,02,16,41,21.20
2023,05,02,16,42,21.20
2023,05,02,16,43,21.20
2023,05,02,16,44,21.20
2023,05,02,16,45,21.20
2023,05,02,16,46,21.20
2023,05,02,16,47,21.20
2023,05,02,16,48,21.30
2023,05,02,16,49,21.40
2023,05,02,16,50,21.40
2023,05,02,16,51,21.40
2023,05,02,16,52,21.30
2023,05,02,16,53,21.30
2023,05,02,16,54,21.30
2023,05,02,16,55,21.30
2023,05,02,16,56,21.30
2023,05,02,16,57,21.30
2023,05,02,16,58,21.20
2023,05,02,16,59,21.20
2023,05,02,17,00,21.30
2023,05,02,17,01,21.30
2023,05,02,17,02,21.30
2023,05,02,17,03,21.30
2023,05,02,17,04,21.30
2023,05,02,17,05,21.40
2023,05,02,17,06,21.50
2023,05,02,17,07,21.60
2023,05,02,17,08,21.60
2023,05,02,17,09,21.70
2023,05,02,17,10,21.70
2023,05,02,17,11,21.70
2023,05,02,17,12,21.70
2023,05,02,17,13,21.60
2023,05,02,17,14,21.60
2023,05,02,17,15,21.70
2023,05,02,17,16,21.80
2023,05,02,17,17,21.80
2023,05,02,17,18,21.70
2023,05,02,17,19,21.70
2023,05,02,17,20,21.80
2023,05,02,17,21,21.80
2023,05,02,17,22,21.80
2023,05,02,17,23,21.80
2023,05,02,17,24,21.80
2023,05,02,17,25,21.80
2023,05,02,17,26,21.80
2023,05,02,17,27,21.90
2023,05,02,17,28,21.90
2023,05,02,17,29,22.00
2023,05,02,17,30,22.00
2023,05,02,17,31,22.10
2023,05,02,17,32,22.10
2023,05,02,17,33,22.10
2023,05,02,17,34,22.10
2023,05,02,17,35,22.20
2023,05,02,17,36,22.20
2023,05,02,17,37,22.20
2023,05,02,17,38,22.30